TimeEST,TemperatureF,Dew PointF,Humidity,Sea Level PressureIn,VisibilityMPH,Wind Direction,Wind SpeedMPH,Gust SpeedMPH,PrecipitationIn,Events,Conditions,WindDirDegrees,DateUTC
12:51 AM,28.0,21.0,75,29.92,10.0,East,5.8,-,N/A,,Overcast,90,2012-12-29 05:51:00
1:51 AM,28.4,21.2,74,29.90,10.0,NNE,4.6,-,N/A,,Overcast,30,2012-12-29 06:51:00
2:51 AM,28.9,21.0,72,29.88,10.0,ENE,6.9,-,N/A,,Overcast,70,2012-12-29 07:51:00
3:48 AM,28.4,23.0,80,29.84,2.5,NNE,6.9,-,0.00,Snow,Light Snow,30,2012-12-29 08:48:00
3:51 AM,28.0,23.0,81,29.87,1.8,NNE,6.9,-,0.00,Snow,Light Snow,20,2012-12-29 08:51:00
3:59 AM,26.6,24.8,93,29.84,0.8,NNE,5.8,-,0.01,Snow,Light Snow,20,2012-12-29 08:59:00
4:14 AM,26.6,24.8,93,29.84,0.5,NE,3.5,-,0.03,Fog-Snow,Snow,50,2012-12-29 09:14:00
4:51 AM,27.0,25.0,92,29.82,0.8,NE,6.9,-,0.07,Snow,Light Snow,40,2012-12-29 09:51:00
4:54 AM,26.6,24.8,93,29.79,1.0,NE,6.9,-,0.01,Snow,Light Snow,40,2012-12-29 09:54:00
5:28 AM,26.6,24.8,93,29.77,1.2,NNE,6.9,-,0.02,Snow,Light Snow,30,2012-12-29 10:28:00
5:37 AM,26.6,24.8,93,29.77,2.0,NNE,8.1,-,0.02,Snow,Light Snow,20,2012-12-29 10:37:00
5:51 AM,27.0,25.0,92,29.78,3.0,NNE,8.1,-,0.03,Snow,Light Snow,20,2012-12-29 10:51:00
6:00 AM,26.6,24.8,93,29.75,3.0,North,9.2,-,0.00,Snow,Light Snow,10,2012-12-29 11:00:00
6:31 AM,28.4,26.6,93,29.75,4.0,NNE,6.9,-,0.00,Snow,Light Snow,20,2012-12-29 11:31:00
6:51 AM,28.9,27.0,92,29.78,4.0,NNE,11.5,-,0.00,Snow,Light Snow,30,2012-12-29 11:51:00
7:16 AM,28.4,26.6,93,29.75,2.5,NE,11.5,-,0.00,Snow,Light Snow,40,2012-12-29 12:16:00
7:46 AM,28.4,26.6,93,29.75,1.5,NE,9.2,-,0.01,Snow,Light Snow,50,2012-12-29 12:46:00
7:51 AM,28.9,26.1,89,29.78,1.0,NE,9.2,-,0.02,Snow,Light Snow,50,2012-12-29 12:51:00
8:10 AM,28.4,26.6,93,29.75,0.8,ENE,8.1,-,0.01,Snow,Light Snow,70,2012-12-29 13:10:00
8:18 AM,28.4,26.6,93,29.75,0.8,ENE,6.9,-,0.02,Snow,Light Snow,60,2012-12-29 13:18:00
8:51 AM,28.0,26.1,92,29.78,1.0,NNE,8.1,-,0.03,Snow,Light Snow,30,2012-12-29 13:51:00
9:29 AM,28.4,26.6,93,29.76,0.8,NNE,5.8,-,0.02,Snow,Light Snow,20,2012-12-29 14:29:00
9:51 AM,28.9,27.0,92,29.78,0.8,Calm,Calm,-,0.03,Snow,Light Snow,0,2012-12-29 14:51:00
10:27 AM,30.2,28.4,93,29.76,1.0,Calm,Calm,-,0.01,Snow,Light Snow,0,2012-12-29 15:27:00
10:40 AM,30.2,28.4,93,29.77,1.2,Calm,Calm,-,0.02,Snow,Light Snow,0,2012-12-29 15:40:00
10:51 AM,30.9,28.0,89,29.79,1.2,Calm,Calm,-,0.02,Snow,Light Snow,0,2012-12-29 15:51:00
11:11 AM,30.2,28.4,93,29.77,1.8,Calm,Calm,-,0.00,Snow,Light Snow,0,2012-12-29 16:11:00
11:51 AM,32.0,28.9,88,29.78,1.0,Calm,Calm,-,0.01,Snow,Light Snow,0,2012-12-29 16:51:00
12:13 PM,32.0,30.2,93,29.76,3.0,Calm,Calm,-,0.00,Snow,Light Snow,0,2012-12-29 17:13:00
12:17 PM,32.0,30.2,93,29.76,1.8,Calm,Calm,-,0.00,Snow,Light Snow,0,2012-12-29 17:17:00
12:34 PM,33.8,30.2,87,29.75,2.5,NNW,5.8,-,0.01,Snow,Light Snow,340,2012-12-29 17:34:00
12:51 PM,33.1,30.0,89,29.78,1.0,North,12.7,19.6,0.01,Snow,Light Snow,360,2012-12-29 17:51:00
1:03 PM,33.8,30.2,87,29.76,3.0,North,11.5,-,0.01,Snow,Light Snow,360,2012-12-29 18:03:00
1:08 PM,33.8,28.4,81,29.76,8.0,North,12.7,-,0.01,Snow,Light Snow,360,2012-12-29 18:08:00
1:51 PM,33.1,28.9,85,29.80,10.0,North,11.5,-,0.01,,Overcast,350,2012-12-29 18:51:00
2:16 PM,32.0,28.4,87,29.78,9.0,NNW,10.4,-,0.00,,Overcast,340,2012-12-29 19:16:00
2:41 PM,32.0,28.4,87,29.79,6.0,NNW,12.7,-,0.00,Snow,Light Snow,330,2012-12-29 19:41:00
2:51 PM,32.0,27.0,82,29.83,9.0,NNW,11.5,-,0.00,,Overcast,330,2012-12-29 19:51:00
3:22 PM,30.2,26.6,86,29.81,9.0,NNW,11.5,-,0.00,Snow,Light Snow,340,2012-12-29 20:22:00
3:51 PM,30.9,27.0,85,29.85,4.0,NNW,10.4,-,0.00,Snow,Light Snow,330,2012-12-29 20:51:00
3:59 PM,30.2,26.6,86,29.83,4.0,NNW,12.7,-,0.00,Snow,Light Snow,330,2012-12-29 20:59:00
4:18 PM,30.2,26.6,86,29.84,2.5,NW,9.2,-,0.00,Snow,Light Snow,320,2012-12-29 21:18:00
4:32 PM,30.2,26.6,86,29.85,3.0,NW,8.1,-,0.00,Snow,Light Snow,320,2012-12-29 21:32:00
4:51 PM,30.9,27.0,85,29.88,2.5,NW,8.1,-,0.00,Snow,Light Snow,310,2012-12-29 21:51:00
5:08 PM,30.2,26.6,86,29.86,4.0,WNW,8.1,-,0.01,Snow,Light Snow,300,2012-12-29 22:08:00
5:37 PM,30.2,26.6,86,29.88,4.0,WNW,10.4,-,0.01,Snow,Light Snow,300,2012-12-29 22:37:00
5:44 PM,30.2,26.6,86,29.89,2.5,WNW,10.4,-,0.01,Snow,Light Snow,300,2012-12-29 22:44:00
5:51 PM,30.0,27.0,88,29.92,1.5,WNW,8.1,-,0.02,Snow,Light Snow,300,2012-12-29 22:51:00
5:58 PM,30.2,26.6,86,29.89,1.8,WNW,8.1,-,0.00,Snow,Light Snow,300,2012-12-29 22:58:00
6:03 PM,30.2,26.6,86,29.89,2.0,WNW,8.1,-,0.00,Snow,Light Snow,300,2012-12-29 23:03:00
6:16 PM,30.2,26.6,86,29.90,1.5,WNW,8.1,-,0.00,Snow,Light Snow,290,2012-12-29 23:16:00
6:26 PM,30.2,28.4,93,29.90,2.0,WNW,6.9,-,0.01,Snow,Light Snow,300,2012-12-29 23:26:00
6:38 PM,30.2,26.6,86,29.91,1.8,WNW,9.2,-,0.01,Snow,Light Snow,290,2012-12-29 23:38:00
6:51 PM,30.0,27.0,88,29.94,2.0,WNW,9.2,-,0.01,Snow,Light Snow,290,2012-12-29 23:51:00
7:09 PM,30.2,26.6,86,29.92,4.0,WNW,10.4,-,0.01,Snow,Light Snow,290,2012-12-30 00:09:00
7:35 PM,30.2,26.6,86,29.92,2.0,WNW,9.2,-,0.01,Snow,Light Snow,290,2012-12-30 00:35:00
7:51 PM,30.0,27.0,88,29.96,1.8,WNW,9.2,-,0.02,Snow,Light Snow,300,2012-12-30 00:51:00
8:02 PM,30.2,26.6,86,29.94,2.0,WNW,10.4,-,0.00,Snow,Light Snow,290,2012-12-30 01:02:00
8:10 PM,30.2,26.6,86,29.94,1.8,WNW,9.2,-,0.00,Snow,Light Snow,290,2012-12-30 01:10:00
8:51 PM,30.0,27.0,88,29.97,2.0,WNW,10.4,-,0.02,Snow,Light Snow,300,2012-12-30 01:51:00
9:09 PM,30.2,26.6,86,29.95,1.5,WNW,10.4,-,0.00,Snow,Light Snow,290,2012-12-30 02:09:00
9:37 PM,30.2,26.6,86,29.96,2.0,NW,9.2,-,0.01,Snow,Light Snow,310,2012-12-30 02:37:00
9:51 PM,30.0,27.0,88,29.99,2.0,WNW,11.5,-,0.02,Snow,Light Snow,300,2012-12-30 02:51:00
10:05 PM,28.4,26.6,93,29.97,3.0,WNW,10.4,-,N/A,Snow,Light Snow,300,2012-12-30 03:05:00
10:37 PM,28.4,24.8,86,29.99,5.0,NW,11.5,-,0.00,Snow,Light Snow,310,2012-12-30 03:37:00
10:51 PM,28.9,25.0,85,30.02,2.5,NW,11.5,-,0.01,Snow,Light Snow,320,2012-12-30 03:51:00
11:08 PM,28.4,24.8,86,30.00,4.0,WNW,9.2,-,0.00,Snow,Light Snow,300,2012-12-30 04:08:00
11:51 PM,30.0,23.0,75,30.04,10.0,WNW,13.8,-,0.00,,Overcast,300,2012-12-30 04:51:00